UTC  calendar date,Angular Size (deg),Planetocentric sub-spacecraft Longitude (deg),Planetocentric sub-spacecraft Latitude (deg),Planetocentric Subsolar Longitude (deg),Planetocentric Subsolar Latitude (deg),Planetographic Sub-Spacecraft Longitude (deg),Planetographic Sub-Spacecraft  Latitude (deg),Planetographic Solar Longitude (deg),Planetographic Solar Latitude (deg),Sub-Point Radius (km),Observer Distance (km),Phase Angle (deg),
2020-12-30 16:45:00.000000 UTC,16.47851807,-126.5731473,14.66938097,89.77902221,-0.50553665,126.5731473,16.66533632,270.2209778,-0.57810839,71165.14754,427744.5918,140.7552396,
2020-12-30 16:55:00.000000 UTC,16.89121843,-132.758992,15.21365258,83.73423325,-0.50550857,132.758992,17.27526635,276.2657668,-0.57807628,71141.20348,415667.1602,140.4127952,
2020-12-30 17:05:00.000000 UTC,17.33016794,-138.9530038,15.78699945,77.68944429,-0.50548048,138.9530038,17.91682301,282.3105557,-0.57804417,71115.15647,403457.0577,140.0465271,
2020-12-30 17:15:00.000000 UTC,17.79808552,-145.1560474,16.39218959,71.64465533,-0.5054524,145.1560474,18.59291436,288.3553447,-0.57801206,71086.76022,391109.0513,139.6539934,
2020-12-30 17:25:00.000000 UTC,18.2980867,-151.369123,17.03237434,65.59986638,-0.50542432,151.369123,19.30683638,294.4001336,-0.57797995,71055.73053,378617.5651,139.2324091,
2020-12-30 17:35:00.000000 UTC,18.83375936,-157.5933944,17.71115882,59.55507742,-0.50539624,157.5933944,20.06234149,300.4449226,-0.57794784,71021.73796,365976.6523,138.7785829,
2020-12-30 17:45:00.000000 UTC,19.40925747,-163.830225,18.43268869,53.51028847,-0.50536816,163.830225,20.86372226,306.4897115,-0.57791572,70984.39879,353179.9661,138.2888405,
2020-12-30 17:55:00.000000 UTC,20.02941819,-170.0812248,19.20175787,47.46549952,-0.50534008,170.0812248,21.71591444,312.5345005,-0.57788361,70943.26388,340220.7291,137.7589301,
2020-12-30 18:05:00.000000 UTC,20.6999093,-176.3483097,20.02394318,41.42071057,-0.505312,176.3483097,22.62462474,318.5792894,-0.5778515,70897.80469,327091.7023,137.1839037,
2020-12-30 18:15:00.000000 UTC,21.4274166,177.3662187,20.9057744,35.37592162,-0.50528392,182.6337814,23.59649032,324.6240784,-0.57781939,70847.39574,313785.1544,136.5579688,
2020-12-30 18:25:00.000000 UTC,22.21988449,171.059568,21.85495071,29.33113267,-0.50525584,188.9404321,24.63927994,330.6688673,-0.57778728,70791.29251,300292.8348,135.8743008,
2020-12-30 18:35:00.000000 UTC,23.086828,164.7283123,22.88061926,23.28634372,-0.50522775,195.2716877,25.76214957,336.7136563,-0.57775516,70728.60333,286605.9517,135.1248028,
2020-12-30 18:45:00.000000 UTC,24.03974238,158.3681958,23.99373716,17.24155478,-0.50519967,201.6318042,26.97597041,342.7584452,-0.57772305,70658.25347,272715.1618,134.2997953,
2020-12-30 18:55:00.000000 UTC,25.09264752,151.9738565,25.20754764,11.19676583,-0.50517159,208.0261435,28.29375419,348.8032342,-0.57769094,70578.93911,258610.5798,133.3876126,
2020-12-30 19:05:00.000000 UTC,26.2628214,145.5384302,26.53821349,5.15197689,-0.50514351,214.4615698,29.73121022,354.8480231,-0.57765883,70489.06804,244281.8206,132.3740686,
2020-12-30 19:15:00.000000 UTC,27.57180337,139.0529686,28.00567099,-0.89281205,-0.50511543,220.9470314,31.30748319,0.89281205,-0.57762671,70386.68348,229718.0949,131.2417444,
2020-12-30 19:25:00.000000 UTC,29.04678879,132.5055583,29.634796,-6.93760099,-0.50508734,227.4944418,33.04614127,6.93760099,-0.5775946,70269.3664,214908.3925,129.9690242,
2020-12-30 19:35:00.000000 UTC,30.72260294,125.879945,31.45701849,-12.98238993,-0.50505926,234.120055,34.97651437,12.98238993,-0.57756249,70134.11233,199841.8087,128.5287713,
2020-12-30 19:45:00.000000 UTC,32.64454963,119.1533022,33.51258773,-19.02717887,-0.50503118,240.8466978,37.1355254,19.02717887,-0.57753037,69977.18068,184508.1027,126.886487,
2020-12-30 19:55:00.000000 UTC,34.8726109,112.2924446,35.85378899,-25.07196781,-0.5050031,247.7075554,39.57021703,25.07196781,-0.57749826,69793.92341,168898.6419,124.9977068,
2020-12-30 20:05:00.000000 UTC,37.48778315,105.2470529,38.5495494,-31.11675674,-0.50497502,254.7529471,42.34124966,31.11675674,-0.57746615,69578.62422,153007.9862,122.8042653,
2020-12-30 20:15:00.000000 UTC,40.60187557,97.93672885,41.69202825,-37.16154567,-0.50494693,262.0632712,45.52770384,37.16154567,-0.57743404,69324.44349,136836.563,120.2288561,
2020-12-30 20:25:00.000000 UTC,44.37305456,90.2241568,45.40582536,-43.20633461,-0.50491885,269.7758432,49.23342758,43.20633461,-0.57740192,69023.72657,120395.2176,117.1670018,
2020-12-30 20:35:00.000000 UTC,49.03111657,81.85330799,49.85969595,-49.25112354,-0.50489077,278.146692,53.59435954,49.25112354,-0.57736981,68669.33852,103713.0718,113.475085,
2020-12-30 20:45:00.000000 UTC,54.91936065,72.28589469,55.27605158,-55.29591247,-0.50486269,287.7141053,58.78222383,55.29591247,-0.5773377,68258.67976,86851.32903,108.9524477,
2020-12-30 20:55:00.000000 UTC,62.56403158,60.1771292,61.9088164,-61.3407014,-0.5048346,299.8228708,64.97941176,61.3407014,-0.57730558,67804.33675,69928.05177,103.3148653,
2020-12-30 21:05:00.000000 UTC,72.78340955,41.19374501,69.80255026,-67.38549032,-0.50480652,318.806255,72.16730715,67.38549032,-0.57727347,67359.90788,53163.81716,96.15656137,
2020-12-30 21:15:00.000000 UTC,86.81757138,-1.98883086,76.78578268,-73.43027925,-0.50477844,1.98883086,78.39663881,73.43027925,-0.57724135,67074.36712,36968.96491,86.90127452,
2020-12-30 21:25:00.000000 UTC,106.2413224,-69.12303235,71.7541665,-79.47506817,-0.50475036,69.12303235,73.91862097,79.47506817,-0.57720924,67269.2051,22118.70273,74.76856362,
2020-12-30 21:35:00.000000 UTC,131.2814976,-100.6499984,53.5419309,-85.5198571,-0.50472227,100.6499984,57.13444895,85.5198571,-0.57717713,68386.98,10108.6689,58.982016,
2020-12-30 21:45:00.000000 UTC,150.322127,-117.0852761,29.04683443,-91.56464602,-0.50469419,117.0852761,32.42003294,91.56464602,-0.57714501,70312.12438,3652.417621,40.86076534,
2020-12-30 21:55:00.000000 UTC,135.2051076,-129.3108451,3.42101395,-97.60943494,-0.50466611,129.3108451,3.91071631,97.60943494,-0.5771129,71473.73365,5851.620859,31.99862129,
2020-12-30 22:05:00.000000 UTC,109.8416096,-140.1817941,-17.82651641,-103.6542239,-0.50463802,140.1817941,-20.19058465,103.6542239,-0.57708079,71015.85095,16355.69882,40.74780551,
2020-12-30 22:15:00.000000 UTC,89.55777225,-150.7074354,-33.48276382,-109.6990128,-0.50460994,150.7074354,-37.10434279,109.6990128,-0.57704867,69979.48659,31561.35383,52.56783794,
2020-12-30 22:25:00.000000 UTC,74.81632621,-161.3598081,-44.95147552,-115.7438017,-0.50458186,161.3598081,-48.7835095,115.7438017,-0.57701656,69060.37821,48687.90594,62.07186701,
2020-12-30 22:35:00.000000 UTC,64.09365999,-172.4368805,-53.55304986,-121.7885906,-0.50455377,172.4368805,-57.14505295,121.7885906,-0.57698444,68386.14684,66414.98038,69.36819266,
2020-12-30 22:45:00.000000 UTC,56.09836123,175.8190221,-60.13593107,-127.8333795,-0.50452569,184.1809779,-63.33843895,127.8333795,-0.57695233,67919.43584,84175.74319,75.07448768,
2020-12-30 22:55:00.000000 UTC,49.96255391,163.1871507,-65.2216876,-133.8781684,-0.50449761,196.8128493,-68.01825764,133.8781684,-0.57692021,67603.52977,101727.964,79.65606183,
2020-12-30 23:05:00.000000 UTC,45.12559796,149.4809083,-69.13300755,-139.9229574,-0.50446952,210.5190917,-71.56436366,139.9229574,-0.5768881,67392.88183,118970.5268,83.42396047,
2020-12-30 23:15:00.000000 UTC,41.2219161,134.6047601,-72.07250907,-145.9677463,-0.50444144,225.39524,-74.20345927,145.9677463,-0.57685598,67255.18982,135866.2684,86.58633687,
2020-12-30 23:25:00.000000 UTC,38.00736451,118.6491496,-74.17461664,-152.0125352,-0.50441336,241.3508504,-76.07890782,152.0125352,-0.57682387,67168.28595,152407.9847,89.2859806,
2020-12-30 23:35:00.000000 UTC,35.31440083,101.9734052,-75.54515264,-158.0573241,-0.50438527,258.0265948,-77.29695175,158.0573241,-0.57679175,67117.01778,168602.6459,91.62366541,
2020-12-30 23:45:00.000000 UTC,33.0249566,85.17777613,-76.29061145,-164.102113,-0.50435719,274.8222239,-77.95803732,164.102113,-0.57675964,67090.95781,184463.7356,93.67245198,
2020-12-30 23:55:00.000000 UTC,31.05376017,68.91831554,-76.53037474,-170.1469019,-0.5043291,291.0816845,-78.17046048,170.1469019,-0.57672752,67082.8525,200007.4152,95.486605,
2020-12-31 00:05:00.000000 UTC,29.33784358,53.68046706,-76.38957705,-176.1916908,-0.50430102,306.3195329,-78.04572964,176.1916908,-0.57669541,67087.59587,215250.5716,97.10729904,
2020-12-31 00:15:00.000000 UTC,27.82977347,39.67791934,-75.98308241,177.7635203,-0.50427293,320.3220807,-77.68543255,182.2364797,-0.57666329,67101.55129,230209.8286,98.56636964,
2020-12-31 00:25:00.000000 UTC,26.49317619,26.89993526,-75.40393409,171.7187314,-0.50424485,333.1000647,-77.17160629,188.2812686,-0.57663118,67122.10031,244901.0622,99.88884376,
2020-12-31 00:35:00.000000 UTC,25.29971049,15.2138853,-74.72076129,165.6739425,-0.50421677,344.7861147,-76.56470826,194.3260575,-0.57659906,67147.33893,259339.1861,101.0946875,
2020-12-31 00:45:00.000000 UTC,24.22697525,4.44777482,-73.98111249,159.6291536,-0.50418868,355.5522252,-75.90664547,200.3708464,-0.57656695,67175.87078,273538.0822,102.2000395,
2020-12-31 00:55:00.000000 UTC,23.25703479,-5.56492057,-73.21663117,153.5843647,-0.5041606,5.56492057,-75.22535302,206.4156353,-0.57653483,67206.6643,287510.6063,103.2180984,
2020-12-31 01:05:00.000000 UTC,22.37536051,-14.96773482,-72.44780196,147.5395758,-0.50413251,14.96773482,-74.53896795,212.4604242,-0.57650272,67238.95302,301268.6348,104.159773,
2020-12-31 01:15:00.000000 UTC,21.57005882,-23.87788221,-71.68757469,141.4947869,-0.50410443,23.87788221,-73.85900913,218.5052131,-0.5764706,67272.16487,314823.128,105.0341654,
2020-12-31 01:25:00.000000 UTC,20.83129928,-32.38873219,-70.94390876,135.449998,-0.50407634,32.38873219,-73.1926076,224.550002,-0.57643848,67305.87174,328184.2015,105.8489366,
2020-12-31 01:35:00.000000 UTC,20.15088514,-40.57394559,-70.22148955,129.4052091,-0.50404826,40.57394559,-72.54401075,230.5947909,-0.57640637,67339.75292,341361.1978,106.6105852,
2020-12-31 01:45:00.000000 UTC,19.52192678,-48.49155842,-69.52286578,123.3604202,-0.50402017,48.49155842,-71.91557909,236.6395798,-0.57637425,67373.5684,354362.7538,107.3246639,
2020-12-31 01:55:00.000000 UTC,18.93859035,-56.18744819,-68.84919838,117.3156313,-0.50399209,56.18744819,-71.30844324,242.6843687,-0.57634214,67407.13922,367196.8659,107.9959484,
2020-12-31 02:05:00.000000 UTC,18.39590231,-63.69809409,-68.20075359,111.2708424,-0.503964,63.69809409,-70.72293675,248.7291576,-0.57631002,67440.3328,379870.9476,108.6285715,
2020-12-31 02:15:00.000000 UTC,17.88959581,-71.05271129,-67.57722825,105.2260535,-0.50393592,71.05271129,-70.15888228,254.7739465,-0.5762779,67473.05201,392391.8838,109.2261294,
2020-12-31 02:25:00.000000 UTC,17.4159889,-78.2748801,-66.97796505,99.18126461,-0.50390783,78.2748801,-69.6157813,260.8187354,-0.57624579,67505.22689,404766.0781,109.7917684,
2020-12-31 02:35:00.000000 UTC,16.97188713,-85.3837847,-66.40209528,93.13647572,-0.50387975,85.3837847,-69.0929403,266.8635243,-0.57621367,67536.80834,416999.4971,110.3282536,
2020-12-31 02:45:00.000000 UTC,16.554505,-92.39515604,-65.8486335,87.09168683,-0.50385166,92.39515604,-68.58955482,272.9083132,-0.57618156,67567.76333,429097.7087,110.8380271,